• In Uzbekistan
  • List of Countries
  • For 7 days
  • Water Temperature
  • Weather Map
  • Weather Widgets
  • user-avatar
    Login

    Hourly Weather Mendoza

    Today, 20 November, Wednesday

    Time Temperature Precipitation Wind Pressure Humidity
    00:00 +28°C° 0 mm 1 mps 697 mmHg 46%
    01:00 +27°C° 0 mm 1 mps 696 mmHg 47%
    02:00 +27°C° 0 mm 2 mps 697 mmHg 47%
    03:00 +26°C° 0 mm 2 mps 697 mmHg 47%
    04:00 +26°C° 0 mm 2 mps 697 mmHg 48%
    05:00 +27°C° 0 mm 4 mps 698 mmHg 41%
    06:00 +27°C° 0 mm 6 mps 698 mmHg 34%
    07:00 +28°C° 0 mm 8 mps 699 mmHg 27%
    08:00 +29°C° 0 mm 7 mps 699 mmHg 25%
    09:00 +32°C° 0 mm 7 mps 699 mmHg 23%
    10:00 +33°C° 0 mm 6 mps 699 mmHg 22%
    11:00 +34°C° 0 mm 6 mps 699 mmHg 22%
    12:00 +34°C° 0 mm 5 mps 698 mmHg 21%
    13:00 +35°C° 0 mm 4 mps 698 mmHg 21%
    14:00 +35°C° 0 mm 4 mps 697 mmHg 21%
    15:00 +35°C° 0 mm 3 mps 697 mmHg 22%
    16:00 +35°C° 0 mm 3 mps 697 mmHg 22%
    17:00 +34°C° 0 mm 2 mps 697 mmHg 24%
    18:00 +32°C° 0 mm 2 mps 697 mmHg 26%
    19:00 +31°C° 0 mm 2 mps 697 mmHg 28%
    20:00 +30°C° 0 mm 2 mps 697 mmHg 32%
    21:00 +29°C° 0 mm 2 mps 697 mmHg 35%
    22:00 +28°C° 0 mm 3 mps 697 mmHg 39%
    23:00 +28°C° 0 mm 2 mps 697 mmHg 41%

    Tomorrow, 21 November, Thursday

    Time Temperature Precipitation Wind Pressure Humidity
    00:00 +28°C° 0 mm 2 mps 697 mmHg 42%
    01:00 +27°C° 0 mm 2 mps 697 mmHg 43%
    02:00 +27°C° 0 mm 2 mps 697 mmHg 45%
    03:00 +26°C° 0 mm 3 mps 696 mmHg 46%
    04:00 +26°C° 0 mm 3 mps 696 mmHg 47%
    05:00 +27°C° 0 mm 4 mps 697 mmHg 44%
    06:00 +28°C° 0 mm 4 mps 697 mmHg 42%
    07:00 +29°C° 0 mm 5 mps 698 mmHg 39%
    08:00 +32°C° 0 mm 5 mps 698 mmHg 37%
    09:00 +33°C° 0 mm 5 mps 698 mmHg 35%
    10:00 +34°C° 0 mm 4 mps 698 mmHg 33%
    11:00 +35°C° 0.1 mm 5 mps 697 mmHg 32%
    12:00 +36°C° 0.1 mm 5 mps 697 mmHg 32%
    13:00 +36°C° 0.1 mm 5 mps 697 mmHg 31%
    14:00 +35°C° 0.6 mm 6 mps 696 mmHg 34%
    15:00 +34°C° 0.6 mm 6 mps 696 mmHg 37%
    16:00 +33°C° 0.6 mm 7 mps 695 mmHg 40%
    17:00 +32°C° 1.3 mm 6 mps 696 mmHg 44%
    18:00 +29°C° 1.3 mm 6 mps 696 mmHg 48%
    19:00 +28°C° 1.3 mm 5 mps 697 mmHg 52%
    20:00 +27°C° 0.2 mm 5 mps 697 mmHg 49%
    21:00 +27°C° 0.2 mm 4 mps 698 mmHg 47%
    22:00 +26°C° 0.2 mm 4 mps 698 mmHg 45%
    23:00 +26°C° 0 mm 5 mps 698 mmHg 42%

    Day after tomorrow, 22 November, Friday

    Time Temperature Precipitation Wind Pressure Humidity
    00:00 +24°C° 0 mm 6 mps 698 mmHg 38%
    01:00 +24°C° 0 mm 7 mps 698 mmHg 35%
    02:00 +23°C° 0 mm 6 mps 698 mmHg 35%
    03:00 +22°C° 0 mm 6 mps 698 mmHg 35%
    04:00 +21°C° 0 mm 6 mps 698 mmHg 36%
    05:00 +22°C° 0 mm 6 mps 698 mmHg 33%
    06:00 +23°C° 0 mm 5 mps 699 mmHg 31%
    07:00 +25°C° 0 mm 5 mps 699 mmHg 29%
    08:00 +26°C° 0 mm 5 mps 699 mmHg 29%
    09:00 +27°C° 0 mm 5 mps 699 mmHg 29%
    10:00 +29°C° 0 mm 4 mps 699 mmHg 29%
    11:00 +29°C° 0 mm 5 mps 699 mmHg 31%
    12:00 +30°C° 0 mm 5 mps 698 mmHg 34%
    13:00 +30°C° 0 mm 5 mps 698 mmHg 36%
    14:00 +30°C° 0 mm 5 mps 697 mmHg 40%
    15:00 +30°C° 0 mm 5 mps 697 mmHg 43%
    16:00 +29°C° 0 mm 5 mps 696 mmHg 47%
    17:00 +28°C° 0 mm 4 mps 697 mmHg 53%
    18:00 +27°C° 0 mm 4 mps 697 mmHg 59%
    19:00 +25°C° 0 mm 3 mps 697 mmHg 66%
    20:00 +25°C° 0 mm 2 mps 697 mmHg 67%
    21:00 +25°C° 0 mm 2 mps 697 mmHg 68%
    22:00 +25°C° 0 mm 1 mps 697 mmHg 69%
    23:00 +24°C° 0 mm 1 mps 697 mmHg 70%

    23 November, Saturday

    Time Temperature Precipitation Wind Pressure Humidity
    00:00 +24°C° 0 mm 1 mps 697 mmHg 71%
    01:00 +24°C° 0 mm 1 mps 696 mmHg 71%
    02:00 +24°C° 0 mm 1 mps 696 mmHg 73%
    03:00 +23°C° 0 mm 1 mps 696 mmHg 74%
    04:00 +23°C° 0 mm 2 mps 696 mmHg 76%
    05:00 +24°C° 0 mm 1 mps 696 mmHg 72%
    06:00 +25°C° 0 mm 1 mps 696 mmHg 69%
    07:00 +25°C° 0 mm 1 mps 696 mmHg 66%
    08:00 +27°C° 0 mm 1 mps 696 mmHg 60%
    09:00 +29°C° 0 mm 2 mps 696 mmHg 54%
    10:00 +30°C° 0 mm 2 mps 695 mmHg 48%
    11:00 +31°C° 0 mm 3 mps 695 mmHg 45%
    12:00 +34°C° 0 mm 3 mps 694 mmHg 41%
    13:00 +35°C° 0 mm 4 mps 694 mmHg 37%
    14:00 +35°C° 0.1 mm 4 mps 693 mmHg 37%
    15:00 +36°C° 0.1 mm 5 mps 693 mmHg 36%
    16:00 +36°C° 0.1 mm 5 mps 693 mmHg 36%
    17:00 +35°C° 0.2 mm 5 mps 693 mmHg 40%
    18:00 +34°C° 0.2 mm 5 mps 693 mmHg 44%
    19:00 +32°C° 0.2 mm 5 mps 694 mmHg 48%
    20:00 +32°C° 0 mm 4 mps 694 mmHg 51%
    21:00 +30°C° 0 mm 4 mps 693 mmHg 53%
    22:00 +30°C° 0 mm 3 mps 693 mmHg 56%
    23:00 +29°C° 0 mm 2 mps 693 mmHg 57%

    24 November, Sunday

    Time Temperature Precipitation Wind Pressure Humidity
    00:00 +29°C° 0 mm 2 mps 692 mmHg 58%
    01:00 +29°C° 0 mm 2 mps 692 mmHg 59%
    02:00 +28°C° 0 mm 2 mps 692 mmHg 61%
    03:00 +27°C° 0 mm 2 mps 692 mmHg 62%
    04:00 +27°C° 0 mm 2 mps 691 mmHg 64%
    05:00 +26°C° 0.2 mm 4 mps 692 mmHg 65%
    06:00 +26°C° 0.2 mm 6 mps 692 mmHg 67%
    07:00 +24°C° 0.2 mm 7 mps 692 mmHg 68%
    08:00 +26°C° 0 mm 7 mps 692 mmHg 61%
    09:00 +27°C° 0 mm 7 mps 693 mmHg 54%
    10:00 +28°C° 0 mm 7 mps 693 mmHg 47%
    11:00 +29°C° 0.1 mm 7 mps 693 mmHg 46%
    12:00 +29°C° 0.1 mm 8 mps 693 mmHg 45%
    13:00 +31°C° 0.1 mm 8 mps 693 mmHg 44%
    14:00 +30°C° 0.7 mm 7 mps 692 mmHg 46%
    15:00 +29°C° 0.7 mm 6 mps 692 mmHg 47%
    16:00 +29°C° 0.7 mm 5 mps 692 mmHg 48%
    17:00 +28°C° 1 mm 4 mps 693 mmHg 53%
    18:00 +27°C° 1 mm 4 mps 693 mmHg 57%
    19:00 +25°C° 1 mm 3 mps 694 mmHg 61%
    20:00 +25°C° 1.2 mm 4 mps 694 mmHg 63%
    21:00 +23°C° 1.2 mm 4 mps 695 mmHg 66%
    22:00 +22°C° 1.2 mm 4 mps 695 mmHg 68%
    23:00 +22°C° 1.9 mm 5 mps 695 mmHg 70%

    25 November, Monday

    Time Temperature Precipitation Wind Pressure Humidity
    00:00 +21°C° 1.9 mm 6 mps 695 mmHg 71%
    01:00 +20°C° 1.9 mm 6 mps 695 mmHg 72%
    02:00 +17°C° 3.7 mm 7 mps 695 mmHg 74%
    03:00 +15°C° 3.7 mm 7 mps 696 mmHg 75%
    04:00 +12°C° 3.7 mm 8 mps 696 mmHg 76%
    05:00 +12°C° 0.7 mm 7 mps 697 mmHg 75%
    06:00 +13°C° 0.7 mm 6 mps 697 mmHg 74%
    07:00 +12°C° 0.7 mm 5 mps 698 mmHg 73%
    08:00 +13°C° 0 mm 4 mps 698 mmHg 68%
    09:00 +13°C° 0 mm 4 mps 698 mmHg 63%
    10:00 +13°C° 0 mm 3 mps 697 mmHg 57%
    11:00 +14°C° 0 mm 3 mps 697 mmHg 52%
    12:00 +16°C° 0 mm 3 mps 696 mmHg 46%
    13:00 +17°C° 0 mm 3 mps 696 mmHg 41%
    14:00 +18°C° 0 mm 2 mps 695 mmHg 39%
    15:00 +19°C° 0 mm 2 mps 695 mmHg 37%
    16:00 +19°C° 0 mm 2 mps 695 mmHg 35%
    17:00 +19°C° 0 mm 2 mps 695 mmHg 37%
    18:00 +18°C° 0 mm 2 mps 695 mmHg 38%
    19:00 +19°C° 0 mm 1 mps 696 mmHg 39%
    20:00 +19°C° 0 mm 1 mps 696 mmHg 40%
    21:00 +17°C° 0 mm 2 mps 696 mmHg 40%
    22:00 +17°C° 0 mm 2 mps 697 mmHg 41%
    23:00 +17°C° 0 mm 2 mps 696 mmHg 42%
    Show more